Mount Olive, Louisiana
Current Conditions -  °F | °C
As of 4:15 PM on Saturday 25 Oct 2014 (Local Time) from KRSN Reporting Station
Clear Clear  
Wind Chill: 82°   Ceiling: Unl
Heat Index: 82°   Visibility: 10mi
Dew Point: 60°   Wind: 6mph
Humidity: 47%   Direction: 240°WSW
Pressure: 30.11"   Gusts: NA
Location:  32.3651°N, 92.7332°W
Report Text: KRSN 252115Z AUTO 24005KT 10SM CLR 28/15 A3011 RMK AO2 T02750154
Loading
Personal Weather Stations






























Interactive Weather Map
Tropical Storm Tracking
New forecast layout! Learn more

10-Day Weather Forecast

Advertisements
Track Severe Weather on mobile